{"data":{"norad_id":61197,"intl_designator":"2024-170C","name":"TIANQI-31","alt_names":[],"object_type":"PAYLOAD","status":"ACTIVE","operator":null,"country":"PRC","launch_date":"2024-09-20","launch_site_code":"XICLF","launch_vehicle":null,"mission":null,"orbit_class":"UNKNOWN","rcs_meters":null,"size_class":null,"mass_kg":null,"dimensions":null,"purposes":[],"wikipedia_slug":null,"has_3d_model":false,"image_url":null,"decayed_at":null,"tle_current":{"epoch":"2026-09-22T20:36:01.720800Z","epoch_age_seconds":90922,"freshness":"FRESH","line1":"1 61197U 24170C   26265.85835325 -.00000032  00000+0  66874-4 0  9998","line2":"2 61197  44.8621  62.8314 0008841 180.0094 180.0737 13.97728405102610","mean_motion":13.97728405,"eccentricity":0.0008841,"inclination_deg":44.8621,"raan_deg":62.8314,"arg_perigee_deg":180.0094,"mean_anomaly_deg":180.0737,"bstar":6.6874e-5,"rev_number":10261,"period_min":103.02430678584,"perigee_km":895.23584865847,"apogee_km":908.10800680448,"semimajor_km":7279.8089277315,"source":"CELESTRAK","updated_at":"2026-09-23T09:00:20.816109Z"}}}